User: anonymous   Login
Location: Newark
(11.4947°N, 0.1467°E)
Time: 22:49:15
(UTC+00:00)
Language:

Envisat - Orbit

View from above orbital plane
View from above orbital plane
View from above satellite
View from above satellite

Ground track
Ground track

The orbit data is extracted from the following two-line orbital elements,

1 27386U 02009A   19345.52496608  .00000008  00000-0  16137-4 0  9999
2 27386  98.1410 357.4800 0001332  90.5470  66.2068 14.37965453931460
Epoch (UTC): 11 December 2019 12:35:57
Eccentricity: 0.0001332
inclination: 98.1410°
perigee height: 764 km
apogee height: 766 km
right ascension of ascending node: 357.4800°
argument of perigee: 90.5470°
revolutions per day: 14.37965453
mean anomaly at epoch: 66.2068°
orbit number at epoch: 93146

The dashed part of the orbit path shows where the satellite is in the earth's shadow,  

DLR